Retour au catalogue

HEAD-2E

ActifCommunicationsSSO
NORAD 49319·PAYLOAD·🇨🇳 China
Ce nom de satellite n'a pas encore été confirmé par des sources officielles.

Lancé Oct 14, 2021 depuis Taiyuan Satellite Launch Center

Loading…

Prochains Passages (prochaines 24 heures)

TLE

FraisSource: Space-Track

Époque: Sep 14, 2026, 15:45 UTC

1 49319U 21091E   26257.65656584  .00035632  00000-0  29314-3 0  9997
2 49319  97.3620 122.9377 0003734 355.8806   4.2425 15.70328574275360

Suivez HEAD-2E en temps réel avec AllMySat

Download on the App Store